Zurück zum Katalog

CZ-3B DEB

AktivGTO
NORAD 40193·DEBRIS·🇨🇳 China

Gestartet Dec 19, 2011 von Xichang Satellite Launch Center

Loading…

TLE

VeraltetSource: Space-Track

Epoche: Sep 11, 2026, 13:01 UTC

1 40193U 11077S   26254.54251830 -.00000267  00000-0  23419-2 0  9997
2 40193  26.7841   8.7933 7416778  13.7937 358.3750  1.86779488 77774

Verfolge CZ-3B DEB in Echtzeit mit AllMySat

Download on the App Store